This is the latest recevied weather packets stored in our database for station/object VE9LJW. If no packets are shown the sender has not sent any weather packets the latest 10 day(s).
| Time | Temp. | Humidity | Pressure | Rain* | Wind** | Luminosity | Snow |
|---|---|---|---|---|---|---|---|
| 1777999685 | 25.56° C | 46% | 1003.8 hPa | 0 mm | - | 705 W/m² | - |
| 1777999383 | 25.56° C | 47% | 1004.3 hPa | 0 mm | - | 684 W/m² | - |
| 1777999081 | 25.56° C | 48% | 1004 hPa | 0 mm | - | 823 W/m² | - |
| 1777998779 | 24.44° C | 49% | 1004.2 hPa | 0 mm | - | 502 W/m² | - |
| 1777998476 | 23.89° C | 50% | 1004.2 hPa | 0 mm | - | 313 W/m² | - |
| 1777998173 | 24.44° C | 50% | 1004.3 hPa | 0 mm | - | 246 W/m² | - |
| 1777997870 | 24.44° C | 51% | 1004.6 hPa | 0 mm | - | 268 W/m² | - |
| 1777997567 | 25° C | 49% | 1004.3 hPa | 0 mm | - | 267 W/m² | - |
| 1777997264 | 25° C | 49% | 1004.4 hPa | 0 mm | - | 598 W/m² | - |
| 1777996962 | 25° C | 49% | 1004.2 hPa | 0 mm | - | 807 W/m² | - |
| 1777996658 | 25° C | 49% | 1004.2 hPa | 0 mm | - | 699 W/m² | - |
| 1777996354 | 24.44° C | 50% | 1004.3 hPa | 0 mm | - | 729 W/m² | - |
| 1777996051 | 24.44° C | 51% | 1004.4 hPa | 0 mm | - | 722 W/m² | - |
| 1777995747 | 24.44° C | 49% | 1004.5 hPa | 0 mm | - | 689 W/m² | - |
| 1777995444 | 24.44° C | 50% | 1004.4 hPa | 0 mm | - | 722 W/m² | - |
| 1777995141 | 25° C | 49% | 1004.5 hPa | 0 mm | - | 495 W/m² | - |
| 1777994838 | 25° C | 49% | 1004.4 hPa | 0 mm | - | 757 W/m² | - |
| 1777994535 | 25° C | 50% | 1004.6 hPa | 0 mm | - | 676 W/m² | - |
| 1777994229 | 24.44° C | 50% | 1004.7 hPa | 0 mm | - | 514 W/m² | - |
| 1777993927 | 25° C | 51% | 1004.8 hPa | 0 mm | - | 636 W/m² | - |
| 1777993623 | 23.89° C | 51% | 1004.7 hPa | 0 mm | - | 680 W/m² | - |
| 1777993322 | 23.89° C | 51% | 1004.6 hPa | 0 mm | - | 683 W/m² | - |
| 1777993021 | 23.89° C | 49% | 1004.7 hPa | 0 mm | - | 708 W/m² | - |
| 1777992720 | 24.44° C | 52% | 1004.8 hPa | 0 mm | - | 730 W/m² | - |
| 1777992416 | 23.89° C | 52% | 1005 hPa | 0 mm | - | 705 W/m² | - |
* Rain latest hour (hover to see other rain measurements)
** Current wind speed in m/s (hover to see current wind gust speed)